SCP
0 0 0 0 0 0 0 0 0 0 0 0 0 0 0 0 0 -0 -0 -0 -0 -0 -0 -0 -0 0 0 0 0 0 0 0
0 0 0 0 0 0 0 0 0 0 0 0 0 0 0 0 0 0 0 -0 0 -0 -1 -1 -1 -0 0 0 0 0 0 0
-0 -0 0 0 0 0 0 0 0 0 -0 0 0 0 -0 -0 -0 0 0 0 -0 -0 -1 -1 -1 -1 0 1 0 0 0 0
0 0 0 0 0 0 0 0 0 0 0 0 0 0 0 -0 0 0 0 0 -0 -0 -0 -0 -0 -0 0 1 1 1 1 0
0 0 0 0 0 0 0 0 0 0 0 0 0 0 0 0 -0 -0 0 0 0 -0 -0 0 0 1 1 1 1 2 1 1
0 0 0 0 0 0 0 0 0 0 0 0 0 0 0 0 0 0 0 0 -0 0 0 0 1 1 2 2 1 2 1 1
0 0 0 0 0 0 0 0 0 0 0 0 0 0 0 0 0 0 0 0 0 0 0 1 1 2 3 3 2 1 1 1
0 0 0 0 0 0 0 0 0 0 0 0 0 0 0 0 0 0 0 1 0 0 1 1 1 2 3 2 2 2 1 1
0 0 0 0 0 0 0 0 0 0 0 0 0 0 0 0 0 0 0 0 1 1 1 2 3 3 2 2 2 1 1 1
0 0 0 0 0 0 0 0 0 0 0 0 0 0 0 0 0 0 0 0 0 0 1 2 3 3 2 1 1 1 0 0
0 0 0 0 0 0 0 0 0 0 0 0 0 0 0 0 0 0 0 0 0 0 0 1 2 3 1 1 1 1 0 0
0 0 0 0 0 0 0 0 0 0 0 0 0 0 0 0 0 0 0 0 0 0 1 2 2 2 1 1 0 0 0 0
0 0 0 0 0 0 0 0 0 0 0 0 0 0 0 0 0 0 0 0 0 1 2 2 1 1 1 1 1 1 0 0
0 0 0 0 0 1 0 0 0 0 0 0 0 0 0 0 0 0 0 0 1 2 3 2 1 1 1 1 0 0 0 0
0 0 0 0 0 0 0 0 0 0 0 0 0 0 0 0 0 0 0 0 0 2 5 3 3 1 0 0 0 0 0 0
0 0 0 0 0 0 0 0 0 0 0 0 0 0 0 0 1 0 0 0 2 2 1 0 0 0 0 0 0 0 0 0
0 0 0 0 0 0 0 0 0 0 0 0 0 3 4 2 0 0 0 0 1 2 0 0 0 0 0 0 0 0 0 0
0 0 0 0 0 0 0 0 0 0 0 0 0 0 0 -0 0 0 0 0 0 1 0 0 0 0 0 0 0 0 0 0
0 0 0 0 0 0 0 0 0 0 0 0 0 0 0 1 1 0 0 0 0 0 0 0 0 0 0 0 0 0 0 0
Wind_Speed_500mb
22 23 22 18 8 20 15 2 7 7 15 13 13 32 43 55 64 77 84 92 103 103 96 94 89 85 84 78 76 65 60 56
29 12 13 30 15 6 7 13 8 9 9 12 9 24 25 28 52 75 80 89 97 105 103 100 95 91 88 86 83 73 66 61
3 12 21 4 6 9 12 11 12 6 13 14 30 33 35 36 61 63 84 94 101 108 107 106 100 99 95 94 88 81 73 65
36 24 16 17 19 14 12 9 3 11 13 11 26 26 45 49 64 71 88 99 105 106 109 112 110 109 103 100 92 84 78 67
17 13 5 14 12 13 11 9 14 12 11 3 8 7 39 48 58 61 67 96 103 101 103 113 116 116 111 106 97 85 79 71
27 17 10 13 14 15 16 11 12 12 10 7 12 19 18 53 63 57 56 71 98 99 107 114 116 118 117 110 101 88 81 78
19 37 19 28 23 18 12 18 18 16 22 20 22 25 42 64 57 52 58 64 80 90 99 108 104 110 112 112 106 91 90 80
32 15 17 14 18 27 13 10 3 12 13 21 42 48 44 65 67 62 55 49 49 71 88 97 101 104 112 114 110 98 92 84
17 14 13 8 4 13 6 9 12 13 23 19 11 16 40 47 50 46 34 25 26 56 73 84 97 101 109 110 109 100 94 83
11 9 10 13 2 25 22 9 15 12 17 31 35 53 46 53 50 39 30 23 18 15 27 54 81 97 101 105 111 96 88 72
11 10 8 5 10 10 12 11 11 4 12 20 60 41 16 43 36 29 26 22 18 23 29 33 55 89 100 102 102 92 85 65
6 12 11 2 12 13 15 11 17 19 16 12 24 14 7 32 36 27 34 27 16 23 27 32 39 55 89 96 97 98 89 64
6 8 5 11 16 4 16 13 14 35 38 34 13 13 16 29 37 27 17 21 25 33 32 32 38 48 73 87 92 86 70 60
7 8 8 41 16 15 8 31 43 42 41 41 34 29 33 25 12 6 23 40 40 42 42 37 38 48 64 77 82 71 63 66
8 7 16 35 33 49 45 54 58 52 35 32 30 19 12 11 19 34 33 23 39 55 48 45 49 58 61 70 58 64 57 46
13 7 8 19 47 53 57 57 57 55 50 39 29 25 25 26 22 32 43 40 44 58 55 50 53 54 59 52 52 53 32 29
2 6 10 24 35 39 34 27 25 18 17 19 20 30 33 32 28 27 34 42 34 50 53 52 53 56 51 38 27 15 5 15
9 12 16 11 26 37 46 36 24 20 15 28 28 10 9 11 24 21 20 20 27 45 51 49 42 40 36 32 28 12 13 7
22 33 30 31 34 30 36 26 21 25 29 34 39 30 28 18 24 23 15 10 26 28 25 24 35 41 28 20 25 34 44 24
Wind_Direction_500mb
223 221 166 237 147 188 138 70 68 259 299 329 205 195 185 187 189 196 198 194 196 201 202 202 206 209 213 215 216 214 216 217
253 192 248 190 174 96 0 164 202 281 259 230 199 181 194 189 187 193 197 197 198 203 207 208 211 212 215 218 216 212 215 221
55 213 208 78 128 62 121 138 162 224 268 217 199 184 186 200 208 190 195 200 205 210 211 213 214 215 218 219 218 213 215 219
248 249 229 164 172 147 139 228 153 159 264 263 183 184 183 202 208 207 201 205 212 216 214 216 216 216 219 220 219 216 216 217
303 331 357 162 165 141 108 91 184 140 255 138 53 125 180 185 207 212 213 201 210 212 212 217 219 220 219 222 221 217 217 220
224 214 183 194 162 161 142 142 173 203 188 162 183 178 186 183 174 184 193 204 208 214 219 222 222 224 222 222 222 217 217 220
213 223 211 203 184 160 153 181 168 217 183 208 192 181 181 177 176 180 188 195 205 215 218 222 221 220 221 222 223 217 219 219
227 229 212 163 210 161 153 132 72 160 213 196 197 176 176 178 182 185 199 202 211 219 221 222 222 224 226 224 226 217 219 219
214 158 117 74 119 215 244 73 200 169 220 160 163 185 174 172 172 161 158 175 211 231 227 226 226 227 226 224 224 220 217 215
173 111 134 233 174 106 92 8 327 256 187 176 180 183 178 165 152 157 163 183 199 204 224 238 237 231 227 226 225 218 217 215
132 145 198 46 26 153 137 347 318 238 85 130 141 134 153 166 173 168 177 177 207 239 251 248 236 232 229 225 222 220 214 215
85 120 168 217 298 24 103 20 324 76 76 97 100 100 254 193 179 181 172 176 216 247 261 253 243 237 229 224 217 214 211 225
87 130 313 275 293 168 78 219 328 80 86 86 86 119 104 135 143 158 196 232 241 241 249 253 240 236 228 220 217 220 220 218
1 55 27 347 313 84 204 80 78 71 85 83 64 55 49 36 50 193 222 220 228 243 236 238 235 235 223 212 207 204 200 207
91 153 277 7 78 81 91 78 74 72 69 70 71 49 44 23 341 333 305 277 250 232 228 222 213 216 205 192 194 197 198 205
116 241 310 55 73 69 73 67 65 63 47 53 41 19 356 330 308 295 303 299 278 237 225 217 210 202 196 203 206 195 191 198
279 100 70 76 85 82 73 63 38 44 45 36 28 19 4 328 307 309 297 290 268 224 210 188 186 188 187 182 178 177 272 340
194 124 107 44 88 86 82 78 57 49 29 35 57 346 346 314 299 295 312 294 191 169 158 153 151 148 149 139 120 116 154 292
140 148 107 81 68 71 76 75 72 37 32 20 35 33 28 279 237 261 254 222 189 187 173 171 176 180 182 223 239 281 246 268
Wind_Speed_850mb
22 23 22 18 8 20 15 2 7 7 15 13 13 32 43 55 64 77 84 92 103 103 96 94 89 85 84 78 76 65 60 56
29 12 13 30 15 6 7 13 8 9 9 12 9 24 25 28 52 75 80 89 97 105 103 100 95 91 88 86 83 73 66 61
3 12 21 4 6 9 12 11 12 6 13 14 30 33 35 36 61 63 84 94 101 108 107 106 100 99 95 94 88 81 73 65
36 24 16 17 19 14 12 9 3 11 13 11 26 26 45 49 64 71 88 99 105 106 109 112 110 109 103 100 92 84 78 67
17 13 5 14 12 13 11 9 14 12 11 3 8 7 39 48 58 61 67 96 103 101 103 113 116 116 111 106 97 85 79 71
27 17 10 13 14 15 16 11 12 12 10 7 12 19 18 53 63 57 56 71 98 99 107 114 116 118 117 110 101 88 81 78
19 37 19 28 23 18 12 18 18 16 22 20 22 25 42 64 57 52 58 64 80 90 99 108 104 110 112 112 106 91 90 80
32 15 17 14 18 27 13 10 3 12 13 21 42 48 44 65 67 62 55 49 49 71 88 97 101 104 112 114 110 98 92 84
17 14 13 8 4 13 6 9 12 13 23 19 11 16 40 47 50 46 34 25 26 56 73 84 97 101 109 110 109 100 94 83
11 9 10 13 2 25 22 9 15 12 17 31 35 53 46 53 50 39 30 23 18 15 27 54 81 97 101 105 111 96 88 72
11 10 8 5 10 10 12 11 11 4 12 20 60 41 16 43 36 29 26 22 18 23 29 33 55 89 100 102 102 92 85 65
6 12 11 2 12 13 15 11 17 19 16 12 24 14 7 32 36 27 34 27 16 23 27 32 39 55 89 96 97 98 89 64
6 8 5 11 16 4 16 13 14 35 38 34 13 13 16 29 37 27 17 21 25 33 32 32 38 48 73 87 92 86 70 60
7 8 8 41 16 15 8 31 43 42 41 41 34 29 33 25 12 6 23 40 40 42 42 37 38 48 64 77 82 71 63 66
8 7 16 35 33 49 45 54 58 52 35 32 30 19 12 11 19 34 33 23 39 55 48 45 49 58 61 70 58 64 57 46
13 7 8 19 47 53 57 57 57 55 50 39 29 25 25 26 22 32 43 40 44 58 55 50 53 54 59 52 52 53 32 29
2 6 10 24 35 39 34 27 25 18 17 19 20 30 33 32 28 27 34 42 34 50 53 52 53 56 51 38 27 15 5 15
9 12 16 11 26 37 46 36 24 20 15 28 28 10 9 11 24 21 20 20 27 45 51 49 42 40 36 32 28 12 13 7
22 33 30 31 34 30 36 26 21 25 29 34 39 30 28 18 24 23 15 10 26 28 25 24 35 41 28 20 25 34 44 24
Wind_Direction_850mb
223 221 166 237 147 188 138 70 68 259 299 329 205 195 185 187 189 196 198 194 196 201 202 202 206 209 213 215 216 214 216 217
253 192 248 190 174 96 0 164 202 281 259 230 199 181 194 189 187 193 197 197 198 203 207 208 211 212 215 218 216 212 215 221
55 213 208 78 128 62 121 138 162 224 268 217 199 184 186 200 208 190 195 200 205 210 211 213 214 215 218 219 218 213 215 219
248 249 229 164 172 147 139 228 153 159 264 263 183 184 183 202 208 207 201 205 212 216 214 216 216 216 219 220 219 216 216 217
303 331 357 162 165 141 108 91 184 140 255 138 53 125 180 185 207 212 213 201 210 212 212 217 219 220 219 222 221 217 217 220
224 214 183 194 162 161 142 142 173 203 188 162 183 178 186 183 174 184 193 204 208 214 219 222 222 224 222 222 222 217 217 220
213 223 211 203 184 160 153 181 168 217 183 208 192 181 181 177 176 180 188 195 205 215 218 222 221 220 221 222 223 217 219 219
227 229 212 163 210 161 153 132 72 160 213 196 197 176 176 178 182 185 199 202 211 219 221 222 222 224 226 224 226 217 219 219
214 158 117 74 119 215 244 73 200 169 220 160 163 185 174 172 172 161 158 175 211 231 227 226 226 227 226 224 224 220 217 215
173 111 134 233 174 106 92 8 327 256 187 176 180 183 178 165 152 157 163 183 199 204 224 238 237 231 227 226 225 218 217 215
132 145 198 46 26 153 137 347 318 238 85 130 141 134 153 166 173 168 177 177 207 239 251 248 236 232 229 225 222 220 214 215
85 120 168 217 298 24 103 20 324 76 76 97 100 100 254 193 179 181 172 176 216 247 261 253 243 237 229 224 217 214 211 225
87 130 313 275 293 168 78 219 328 80 86 86 86 119 104 135 143 158 196 232 241 241 249 253 240 236 228 220 217 220 220 218
1 55 27 347 313 84 204 80 78 71 85 83 64 55 49 36 50 193 222 220 228 243 236 238 235 235 223 212 207 204 200 207
91 153 277 7 78 81 91 78 74 72 69 70 71 49 44 23 341 333 305 277 250 232 228 222 213 216 205 192 194 197 198 205
116 241 310 55 73 69 73 67 65 63 47 53 41 19 356 330 308 295 303 299 278 237 225 217 210 202 196 203 206 195 191 198
279 100 70 76 85 82 73 63 38 44 45 36 28 19 4 328 307 309 297 290 268 224 210 188 186 188 187 182 178 177 272 340
194 124 107 44 88 86 82 78 57 49 29 35 57 346 346 314 299 295 312 294 191 169 158 153 151 148 149 139 120 116 154 292
140 148 107 81 68 71 76 75 72 37 32 20 35 33 28 279 237 261 254 222 189 187 173 171 176 180 182 223 239 281 246 268